Location: Sawmill Trailhead
(33.5800°N, 116.4497°W)
Time: 15:21:35
(UTC-07:00)

Uosat F - Visible Passes

Search period start: 19 August 2017 00:00
Search period end: 29 August 2017 00:00
Orbit: 750 x 762 km, 98.8° (Epoch: 19 August)

Date Brightness Start Highest point End Pass type
(mag) Time Alt. Az. Time Alt. Az. Time Alt. Az.
21 Aug 13.7 20:02:56 10° SW 20:06:45 22° W 20:10:36 10° NW visible
23 Aug 14.0 20:24:18 10° WSW 20:26:42 13° W 20:29:06 10° WNW visible
24 Aug 12.9 19:42:24 10° SSW 19:46:57 35° W 19:51:32 10° NNW visible
26 Aug 13.7 20:03:00 10° SSW 20:06:51 22° W 20:10:43 10° NW visible
28 Aug 14.0 20:24:19 10° WSW 20:26:47 14° W 20:29:15 10° WNW visible
